Regional Weather Roundup
Issued by NWS

Home | Current Version | Previous Version | Text Only | Print | Product List | Glossary On
Versions: 1 2 3 4 5 6 7 8 9 10 11 12 13 14 15 16 17 18 19 20 21 22 23 24 25 26 27 28
000
ASUS45 KPSR 200710
RWRAZ

ARIZONA HOURLY REGIONAL WEATHER ROUNDUP
NATIONAL WEATHER SERVICE PHOENIX AZ
1200 AM MST FRI OCT 20 2017

NOTE: FAIR INDICATES FEW OR NO CLOUDS BELOW 12,000 FEET WITH NO
SIGNIFICANT WEATHER AND/OR OBSTRUCTIONS TO VISIBILITY.

AZZ001>003-036-200800-
NORTHWEST ARIZONA

CITY           SKY/WX    TMP DP  RH WIND       PRES   REMARKS
BULLHEAD CITY  CLEAR     79  23  12 S6        29.70S
KINGMAN        CLEAR     59  30  33 SW7       29.86S
$$

AZZ004>008-015-016-018-200800-
NORTH CENTRAL ARIZONA

CITY           SKY/WX    TMP DP  RH WIND       PRES   REMARKS
GRAND CANYON   CLEAR     37  26  64 CALM      30.05F
WILLIAMS       CLEAR     48  34  57 S8        30.05F
PRESCOTT       CLEAR     53  40  61 S7        29.97F
FLAGSTAFF      CLEAR     38  27  64 CALM      30.08F
PAYSON           N/A     57  32  38 CALM      30.01F
PAGE           PTCLDY    66  37  34 SW7       29.86F
$$

AZZ009>014-017-200800-
NORTHEAST ARIZONA

CITY           SKY/WX    TMP DP  RH WIND       PRES   REMARKS
WINSLOW        CLEAR     51  33  50 E6        29.98F
SAINT JOHNS    CLEAR     49  36  61 E5        30.04F
WINDOW ROCK    PTCLDY    41  33  73 CALM      30.10F
SHOW LOW       CLEAR     54  34  47 S10       30.09S
$$

AZZ540-542>544-546-548-200800-
GREATER PHOENIX AREA

CITY           SKY/WX    TMP DP  RH WIND       PRES   REMARKS
PHOENIX        MOCLDY    79  41  25 CALM      29.75F
BUCKEYE        MOCLDY    72  32  23 CALM      29.76S
LUKE AFB       PTCLDY    76  38  25 S7        29.74S
DEER VALLEY    CLEAR     73  40  30 E3        29.77F
SCOTTSDALE     CLEAR     75  41  29 NE6       29.79F
MESA-GATEWAY   CLEAR     70  43  37 SE9       29.79F
$$

AZZ539-553-200800-
SOUTHWEST MARICOPA COUNTY AND PINAL COUNTY

CITY           SKY/WX    TMP DP  RH WIND       PRES   REMARKS
CASA GRANDE    NOT AVBL
$$

AZZ503-504-507>509-200800-
SOUTHEAST ARIZONA

CITY           SKY/WX    TMP DP  RH WIND       PRES   REMARKS
TUCSON         MOCLDY    73  37  27 S7        29.91F
DAVIS-MONTHAN  CLOUDY    72  36  27 S6        29.89F
NOGALES        CLOUDY    69  39  33 CALM      29.99S
SIERRA VISTA   MOCLDY    70  35  27 SW8       30.04F
DOUGLAS        MOCLDY    61  29  29 S8        30.01S
SAFFORD        PTCLDY    70  39  32 E7        29.90F
$$

AZZ532-200800-
SOUTHWEST ARIZONA

CITY           SKY/WX    TMP DP  RH WIND       PRES   REMARKS
YUMA           PTCLDY    76  41  28 NW7       29.75S
$$

CAZ041-043-047-048-061-525>527-560>570-200800-
SOUTHERN CALIFORNIA

CITY           SKY/WX    TMP DP  RH WIND       PRES   REMARKS
DOWNTOWN L.A.  MOCLDY    67  60  78 CALM      29.92R
L.A. AIRPORT   PTCLDY    65  59  81 E5        29.92R
SAN DIEGO      PTCLDY    67  62  84 S3        29.94F
BURBANK        PTCLDY    64  56  75 SE5       29.93R
ONTARIO        MOCLDY    62  59  90 W9        29.93R
RIVERSIDE      CLOUDY    64  62  93 CALM      29.93S
PALM SPRINGS   CLEAR     71  50  47 S7        29.75S
EL CENTRO NAS  CLEAR     78  44  29 W16       29.77R
IMPERIAL       CLEAR     75  45  34 W15       29.75S
BLYTHE         CLEAR     76  49  38 S13       29.71F
NEEDLES        CLEAR     81  24  12 SW9       29.72S
$$

NVZ020-UTZ003-200800-
SOUTHERN NEVADA-UTAH

CITY           SKY/WX    TMP DP  RH WIND       PRES   REMARKS
LAS VEGAS      CLEAR     74  32  21 S16G28    29.73S
SALT LAKE CITY PTCLDY    66  39  37 S17       29.71F
$$

NMZ009-TXZ055-200800-
NEW MEXICO-WEST TEXAS

CITY           SKY/WX    TMP DP  RH WIND       PRES   REMARKS
ALBUQUERQUE    CLOUDY    53  51  93 SE6       30.07F
EL PASO        PTCLDY    60  53  77 W3        30.04F
$$


........................KEY........................
SKY/WX - SKY CONDITION/WEATHER
TMP    - TEMPERATURE IN FAHRENHEIT
DP     - DEW POINT IN FAHRENHEIT
RH     - RELATIVE HUMIDITY IN PERCENT
WIND   - DIRECTION AND SPEED IN MILES PER HOUR (MPH)
VRB    - VARIABLE WIND DIRECTION
PRES   - MEAN SEA LEVEL PRESSURE IN INCHES OF MERCURY
         F - FALLING PRESSURE   R - RISING PRESSURE
         S - STEADY PRESSURE
VSB    - VISIBILITY IN MILES
HX     - HEAT INDEX IN FAHRENHEIT
WCI    - WIND CHILL INDEX IN FAHRENHEIT
TC     - TEMPERATURE IN CELSIUS WHICH IS ALSO KNOWN AS
         TEMPERATURE IN CENTIGRADE
AFB    - AIR FORCE BASE
         LUKE AFB IS LUKE AIR FORCE BASE
         DAVIS-MONTHAN IS DAVIS-MONTHAN AIR FORCE BASE
NAS    - NAVAL AIR STATION
         EL CENTRO NAS IS EL CENTRO NAVAL AIR STATION
N/A    - NOT AVAILABLE





USA.gov is the U.S. government's official web portal to all federal, state and local government web resources and services.